[[{"header":{"parameterUnit":"m.s-1","parameterCategory":2,"la1":30.2992,"la2":30.254,"lo1":-89.0895,"lo2":-89.0443,"dy":0.0025,"dx":0.0025,"nx":19,"ny":19,"refTime":"2026-05-18T09:00:00:Z","depth":"0","parameterNumber":2,"parameterNumberName":"U-component_of_CURRENTS"},"data":[0,0,0,-0.2289,-0.2289,-0.231,-0.231,-0.2282,-0.2282,0,0,0,0,0,0,0,0,0,0,0,-0.2277,-0.2277,-0.2289,-0.229,-0.231,-0.231,-0.2282,-0.2282,0,0,0,0,0,0,0,0,0,0,0,-0.2277,-0.2277,-0.2277,-0.229,-0.231,-0.231,-0.2282,-0.2277,0,0,0,0,0,0,0,0,0,0,-0.2263,-0.2253,-0.2277,-0.2277,-0.229,-0.231,-0.231,-0.2278,-0.2278,-0.2261,0,-0.2271,0,-0.2282,-0.228,-0.228,0,0,0,-0.2278,-0.2253,-0.2273,-0.2277,-0.229,-0.231,-0.2298,-0.2278,-0.2278,-0.2261,-0.2271,-0.227,-0.2282,-0.228,-0.2279,-0.231,-0.231,0,0,-0.2277,-0.2264,-0.2273,-0.2273,-0.2304,-0.2297,-0.2298,-0.2278,-0.2272,-0.2271,-0.227,-0.2281,-0.2279,-0.2279,-0.2309,-0.231,0,0,0,-0.2281,-0.2263,-0.2283,-0.2274,-0.2285,-0.2298,-0.2299,-0.2273,-0.2284,-0.227,-0.2281,-0.2279,-0.2279,-0.2308,-0.2309,-0.2342,0,0,0,-0.228,-0.2267,-0.2283,-0.2273,-0.2286,-0.2285,-0.2294,-0.2285,-0.2284,-0.2281,-0.2279,-0.2279,-0.2308,-0.2309,-0.2339,-0.2324,0,0,0,-0.2274,-0.2266,-0.2274,-0.2273,-0.229,-0.2286,-0.2295,-0.2285,-0.229,-0.228,-0.2278,-0.2307,-0.2309,-0.2337,-0.2321,-0.229,0,0,0,-0.2252,-0.2283,-0.2274,-0.2316,-0.229,-0.2346,-0.2295,-0.232,-0.2319,-0.2279,-0.2308,-0.2309,-0.2337,-0.232,-0.2289,-0.2116,-0.2104,0,0,-0.2285,-0.2286,-0.2316,-0.231,-0.2367,-0.2341,-0.2383,-0.2354,-0.233,-0.2307,-0.2308,-0.234,-0.2321,-0.229,-0.2193,-0.2179,0,0,0,-0.2325,-0.2333,-0.2356,-0.238,-0.2417,-0.2414,-0.2404,-0.2392,-0.2373,-0.2338,-0.2358,-0.2345,-0.2324,-0.2219,-0.2209,-0.2154,-0.2315,-0.2315,-0.2315,-0.2304,-0.2344,-0.238,-0.242,-0.245,-0.2465,-0.2459,-0.2434,-0.2422,-0.2423,-0.2386,-0.2402,-0.2295,-0.2284,-0.2232,-0.2419,-0.2419,-0.2419,-0.2419,-0.2313,-0.2315,-0.2367,-0.2411,-0.2435,-0.2458,-0.2474,-0.2466,-0.2436,-0.2435,-0.2413,-0.2277,-0.2273,-0.2223,-0.2422,-0.2421,-0.2421,-0.2421,-0.2421,-0.2252,-0.2258,-0.2297,-0.2343,-0.2378,-0.2425,-0.2419,-0.2444,-0.2436,-0.2428,-0.2277,-0.2274,-0.221,-0.2413,-0.2413,-0.2412,-0.2412,-0.2412,-0.2412,-0.215,-0.2198,-0.2196,-0.2268,-0.2282,-0.2321,-0.2375,-0.2361,-0.2304,-0.2273,-0.2271,-0.22,-0.2398,-0.2376,-0.2409,-0.241,-0.241,-0.241,-0.2411,-0.2034,-0.2064,-0.206,-0.2073,-0.2126,-0.2101,-0.2208,-0.2137,-0.2134,-0.2058,-0.2005,-0.2177,-0.2132,-0.2139,-0.211,-0.2072,-0.2072,-0.2072,-0.2072,-0.1924,-0.1953,-0.1905,-0.1901,-0.1924,-0.1982,-0.1857,-0.1841,-0.1813,-0.1767,-0.1841,-0.1817,-0.1833,-0.1772,-0.1787,-0.1752,-0.1625,-0.1624,-0.1624,-0.1814,-0.1834,-0.1748,-0.1787,-0.1816,-0.1812,-0.1642,-0.1529,-0.1532,-0.161,-0.1806,-0.1825,-0.1802,-0.1831,-0.1746,-0.1771,-0.1718,0,0]},{"header":{"parameterUnit":"m.s-1","parameterCategory":2,"la1":30.2992,"la2":30.254,"lo1":-89.0895,"lo2":-89.0443,"dy":0.0025,"dx":0.0025,"nx":19,"ny":19,"refTime":"2026-05-18T09:00:00:Z","depth":"0","parameterNumber":3,"parameterNumberName":"V-component_of_CURRENTS"},"data":[0,0,0,-0.0428,-0.0427,-0.0345,-0.0345,-0.0217,-0.0217,0,0,0,0,0,0,0,0,0,0,0,-0.0458,-0.0457,-0.0428,-0.0427,-0.0345,-0.0345,-0.0218,-0.0216,0,0,0,0,0,0,0,0,0,0,0,-0.0458,-0.0457,-0.0457,-0.0427,-0.0345,-0.0344,-0.0218,-0.0281,0,0,0,0,0,0,0,0,0,0,-0.0362,-0.0402,-0.0457,-0.0457,-0.0426,-0.0345,-0.0344,-0.0284,-0.0277,-0.0253,0,-0.0253,0,-0.0238,-0.0209,-0.0209,0,0,0,-0.041,-0.0408,-0.0385,-0.0457,-0.0426,-0.0346,-0.0377,-0.028,-0.0272,-0.0244,-0.0251,-0.0246,-0.0236,-0.0208,-0.0208,-0.0119,-0.0119,0,0,-0.0414,-0.0438,-0.0391,-0.0381,-0.0419,-0.038,-0.0375,-0.0276,-0.0274,-0.0251,-0.0243,-0.0234,-0.0208,-0.0207,-0.0119,-0.0119,0,0,0,-0.0439,-0.0441,-0.0421,-0.0386,-0.0376,-0.0378,-0.0372,-0.0278,-0.0271,-0.0242,-0.0232,-0.0207,-0.0206,-0.0119,-0.0119,-0.018,0,0,0,-0.0441,-0.0456,-0.0423,-0.0435,-0.0379,-0.033,-0.0377,-0.0278,-0.0267,-0.0233,-0.0207,-0.0204,-0.0119,-0.0119,-0.0179,-0.0206,0,0,0,-0.0459,-0.0458,-0.0453,-0.0437,-0.0409,-0.0332,-0.0319,-0.0275,-0.0261,-0.0209,-0.0204,-0.0119,-0.0119,-0.0178,-0.0203,-0.0147,0,0,0,-0.0477,-0.0501,-0.0454,-0.0472,-0.041,-0.0377,-0.0319,-0.0284,-0.0246,-0.0206,-0.0119,-0.0119,-0.0177,-0.0202,-0.0147,-0.0041,-0.0034,0,0,-0.0522,-0.0507,-0.0517,-0.0474,-0.0472,-0.0386,-0.0358,-0.0285,-0.0228,-0.0148,-0.0145,-0.0179,-0.0203,-0.0147,-0.0022,-0.0015,0,0,0,-0.0541,-0.0551,-0.0541,-0.0526,-0.0478,-0.0417,-0.0339,-0.0289,-0.0211,-0.0206,-0.0155,-0.0168,-0.013,-0.0065,-0.006,0.0125,-0.0117,-0.0117,-0.0117,-0.0627,-0.0599,-0.0614,-0.057,-0.0534,-0.0434,-0.0374,-0.0284,-0.0237,-0.0207,-0.02,-0.0177,-0.011,-0.0104,0.0084,-0.0179,-0.0179,-0.0179,-0.0179,-0.0706,-0.0716,-0.0664,-0.0671,-0.0588,-0.0544,-0.0401,-0.0345,-0.0234,-0.022,-0.0179,-0.0113,-0.0102,0.0097,-0.0183,-0.0182,-0.0182,-0.0181,-0.0181,-0.0769,-0.0771,-0.0767,-0.0756,-0.0708,-0.0606,-0.0517,-0.0415,-0.029,-0.0256,-0.0116,-0.0114,0.0051,-0.0217,-0.0217,-0.0217,-0.0217,-0.0217,-0.0217,-0.0838,-0.0831,-0.0862,-0.0839,-0.0821,-0.0756,-0.0582,-0.0469,-0.0266,-0.0159,-0.0157,0.0097,-0.0187,-0.0197,-0.0215,-0.0215,-0.0216,-0.0216,-0.0216,-0.0913,-0.0913,-0.0961,-0.0965,-0.0921,-0.0823,-0.0671,-0.0358,-0.0221,-0.0084,0.022,-0.0072,-0.0026,-0.0028,-0.0032,-0.0007,-0.0007,-0.0007,-0.0007,-0.0964,-0.0969,-0.1028,-0.104,-0.1005,-0.0854,-0.0565,-0.0234,0.0176,0.0389,0.0408,0.0448,0.0431,0.0506,0.0492,0.05,0.066,0.0661,0.0662,-0.1006,-0.1023,-0.1065,-0.1076,-0.1032,-0.0848,-0.0501,0.0,0.0552,0.0704,0.0645,0.0617,0.0686,0.0645,0.0767,0.0732,0.0746,0,0]}],[{"header":{"parameterUnit":"m.s-1","parameterCategory":2,"la1":30.2992,"la2":30.254,"lo1":-89.0895,"lo2":-89.0443,"dy":0.0025,"dx":0.0025,"nx":19,"ny":19,"refTime":"2026-05-18T09:00:00:Z","depth":"2","parameterNumber":2,"parameterNumberName":"U-component_of_CURRENTS"},"data":[0,0,0,-0.2132,-0.2133,-0.2159,-0.2159,-0.2135,-0.2135,0,0,0,0,0,0,0,0,0,0,0,-0.2119,-0.2119,-0.2132,-0.2133,-0.2159,-0.2159,-0.2135,-0.2135,0,0,0,0,0,0,0,0,0,0,0,-0.2119,-0.2119,-0.2119,-0.2133,-0.2159,-0.2159,-0.2135,-0.2127,0,0,0,0,0,0,0,0,0,0,-0.2108,-0.2099,-0.2119,-0.2119,-0.2133,-0.2159,-0.2159,-0.2127,-0.2128,-0.211,0,-0.212,0,-0.2132,-0.2133,-0.2132,0,0,0,-0.2123,-0.2099,-0.2117,-0.2119,-0.2134,-0.2159,-0.2144,-0.2128,-0.2128,-0.211,-0.212,-0.212,-0.2132,-0.2132,-0.2132,-0.2158,-0.2158,0,0,-0.2121,-0.2109,-0.2117,-0.2118,-0.2148,-0.2144,-0.2145,-0.2129,-0.2123,-0.212,-0.212,-0.2131,-0.2132,-0.2132,-0.2157,-0.2158,0,0,0,-0.2124,-0.2108,-0.2128,-0.2118,-0.2131,-0.2145,-0.2146,-0.2124,-0.2134,-0.212,-0.2131,-0.2132,-0.2132,-0.2157,-0.2158,-0.2192,0,0,0,-0.2123,-0.2111,-0.2127,-0.2118,-0.2131,-0.2134,-0.2142,-0.2135,-0.2134,-0.2131,-0.2132,-0.2131,-0.2156,-0.2157,-0.219,-0.2176,0,0,0,-0.2116,-0.211,-0.2118,-0.2118,-0.2136,-0.2135,-0.2143,-0.2136,-0.2141,-0.2132,-0.2131,-0.2156,-0.2157,-0.2188,-0.2174,-0.2145,0,0,0,-0.2095,-0.2123,-0.2117,-0.2155,-0.2136,-0.2187,-0.2144,-0.217,-0.217,-0.2132,-0.2156,-0.2158,-0.2187,-0.2173,-0.2144,-0.1969,-0.1957,0,0,-0.2124,-0.2125,-0.2153,-0.215,-0.2202,-0.2183,-0.2222,-0.22,-0.2178,-0.2154,-0.2155,-0.2191,-0.2174,-0.2144,-0.2038,-0.2024,0,0,0,-0.2159,-0.2167,-0.2188,-0.2211,-0.2247,-0.2248,-0.2243,-0.2233,-0.2219,-0.2186,-0.2205,-0.2193,-0.2173,-0.2068,-0.2057,-0.2163,-0.2163,-0.2163,-0.2163,-0.214,-0.2176,-0.2209,-0.2246,-0.2275,-0.2295,-0.2292,-0.2271,-0.2262,-0.2266,-0.2234,-0.2249,-0.214,-0.2129,-0.2263,-0.2263,-0.2263,-0.2263,-0.2264,-0.2146,-0.2147,-0.2197,-0.2238,-0.2264,-0.229,-0.2308,-0.2303,-0.2278,-0.2279,-0.2258,-0.2125,-0.2119,-0.2267,-0.2266,-0.2266,-0.2265,-0.2265,-0.2265,-0.209,-0.2094,-0.2134,-0.2178,-0.2215,-0.2263,-0.226,-0.2288,-0.2283,-0.2277,-0.2127,-0.2123,-0.2229,-0.2264,-0.2264,-0.2264,-0.2264,-0.2263,-0.2263,-0.1995,-0.204,-0.2041,-0.211,-0.2127,-0.2167,-0.2223,-0.221,-0.2156,-0.2125,-0.2123,-0.2248,-0.2248,-0.2228,-0.2261,-0.2261,-0.2262,-0.2262,-0.2262,-0.1884,-0.1915,-0.1911,-0.1926,-0.1977,-0.1945,-0.2057,-0.1988,-0.1988,-0.1913,-0.2023,-0.2029,-0.1984,-0.199,-0.1964,-0.1926,-0.1926,-0.1926,-0.1926,-0.1779,-0.1808,-0.1763,-0.1759,-0.1778,-0.1825,-0.1678,-0.162,-0.1659,-0.164,-0.1653,-0.1626,-0.1645,-0.158,-0.1596,-0.1562,-0.142,-0.1419,-0.1418,-0.1674,-0.1694,-0.1611,-0.1649,-0.1671,-0.1649,-0.1433,-0.1195,-0.1185,-0.1402,-0.1605,-0.1885,-0.1879,-0.1895,-0.1825,-0.1839,-0.1796,0,0]},{"header":{"parameterUnit":"m.s-1","parameterCategory":2,"la1":30.2992,"la2":30.254,"lo1":-89.0895,"lo2":-89.0443,"dy":0.0025,"dx":0.0025,"nx":19,"ny":19,"refTime":"2026-05-18T09:00:00:Z","depth":"2","parameterNumber":3,"parameterNumberName":"V-component_of_CURRENTS"},"data":[0,0,0,-0.0427,-0.0426,-0.0351,-0.0351,-0.023,-0.0229,0,0,0,0,0,0,0,0,0,0,0,-0.0454,-0.0454,-0.0428,-0.0426,-0.0351,-0.035,-0.023,-0.0229,0,0,0,0,0,0,0,0,0,0,0,-0.0454,-0.0454,-0.0454,-0.0426,-0.0351,-0.035,-0.023,-0.0289,0,0,0,0,0,0,0,0,0,0,-0.0364,-0.0401,-0.0454,-0.0454,-0.0426,-0.0351,-0.035,-0.0292,-0.0285,-0.0262,0,-0.0262,0,-0.0249,-0.0222,-0.0221,0,0,0,-0.041,-0.0407,-0.0386,-0.0454,-0.0425,-0.0351,-0.038,-0.0288,-0.0281,-0.0253,-0.0261,-0.0256,-0.0247,-0.0221,-0.0221,-0.0132,-0.0131,0,0,-0.0414,-0.0436,-0.0392,-0.0382,-0.042,-0.0383,-0.0378,-0.0284,-0.0282,-0.026,-0.0253,-0.0245,-0.022,-0.022,-0.0132,-0.0131,0,0,0,-0.0437,-0.0439,-0.042,-0.0387,-0.0379,-0.0381,-0.0376,-0.0286,-0.028,-0.0252,-0.0244,-0.022,-0.0218,-0.0132,-0.0132,-0.0192,0,0,0,-0.0439,-0.0453,-0.0423,-0.0434,-0.0381,-0.0336,-0.038,-0.0287,-0.0276,-0.0244,-0.022,-0.0217,-0.0132,-0.0132,-0.0191,-0.022,0,0,0,-0.0455,-0.0455,-0.0451,-0.0435,-0.041,-0.0337,-0.0325,-0.0284,-0.0271,-0.0221,-0.0217,-0.0132,-0.0132,-0.019,-0.0217,-0.0165,0,0,0,-0.0472,-0.0495,-0.0452,-0.0469,-0.0411,-0.0379,-0.0326,-0.0293,-0.0256,-0.0219,-0.0132,-0.0132,-0.019,-0.0216,-0.0165,-0.0076,-0.0071,0,0,-0.0515,-0.0501,-0.051,-0.047,-0.0469,-0.0387,-0.036,-0.0292,-0.0237,-0.0159,-0.0157,-0.0191,-0.0217,-0.0165,-0.0052,-0.0047,0,0,0,-0.0533,-0.0544,-0.0535,-0.052,-0.0474,-0.0418,-0.0343,-0.0294,-0.0219,-0.0215,-0.0165,-0.0179,-0.0144,-0.009,-0.0086,-0.013,-0.013,-0.013,-0.013,-0.0618,-0.0591,-0.0606,-0.0564,-0.0529,-0.0433,-0.0376,-0.0289,-0.0243,-0.0213,-0.021,-0.0188,-0.0131,-0.0126,-0.0185,-0.0185,-0.0186,-0.0186,-0.0186,-0.0696,-0.0708,-0.0657,-0.0665,-0.0584,-0.0542,-0.0403,-0.0349,-0.0242,-0.0226,-0.0189,-0.0134,-0.0125,-0.019,-0.0189,-0.0189,-0.0188,-0.0188,-0.0188,-0.0761,-0.0763,-0.076,-0.0752,-0.0706,-0.0607,-0.0522,-0.0421,-0.0299,-0.0267,-0.0142,-0.014,-0.0212,-0.0231,-0.0231,-0.0231,-0.0231,-0.0231,-0.0231,-0.0832,-0.0825,-0.0858,-0.0837,-0.0822,-0.076,-0.059,-0.0483,-0.0291,-0.0187,-0.0185,-0.0201,-0.02,-0.0211,-0.0229,-0.0229,-0.023,-0.023,-0.023,-0.0911,-0.091,-0.0961,-0.0967,-0.0928,-0.0844,-0.069,-0.0395,-0.0263,-0.0135,-0.0107,-0.0111,-0.0068,-0.0069,-0.0075,-0.0057,-0.0057,-0.0057,-0.0057,-0.0964,-0.0968,-0.1031,-0.1047,-0.1019,-0.0883,-0.0642,-0.0357,-0.0109,-0.0014,-0.0017,-0.0013,-0.0019,0.0026,0.0023,0.0018,0.0061,0.0061,0.0061,-0.1009,-0.1026,-0.1072,-0.1086,-0.1051,-0.0893,-0.0627,-0.0276,0.0018,0.0059,-0.0064,-0.0036,-0.0035,-0.0044,0.0023,0.0018,0.001,0,0]}],[{"header":{"parameterUnit":"m.s-1","parameterCategory":2,"la1":30.2992,"la2":30.254,"lo1":-89.0895,"lo2":-89.0443,"dy":0.0025,"dx":0.0025,"nx":19,"ny":19,"refTime":"2026-05-18T09:00:00:Z","depth":"4","parameterNumber":2,"parameterNumberName":"U-component_of_CURRENTS"},"data":[0,0,0,-0.1461,-0.1463,-0.1572,-0.1572,-0.1625,-0.1625,0,0,0,0,0,0,0,0,0,0,0,-0.1427,-0.1428,-0.146,-0.1463,-0.1572,-0.1572,-0.1625,-0.1625,0,0,0,0,0,0,0,0,0,0,0,-0.1427,-0.1428,-0.1429,-0.1464,-0.1572,-0.1572,-0.1625,-0.1564,0,0,0,0,0,0,0,0,0,0,-0.147,-0.1453,-0.1428,-0.1429,-0.1464,-0.1571,-0.1572,-0.1563,-0.1568,-0.155,0,-0.1576,0,-0.1597,-0.1626,-0.1626,0,0,0,-0.1465,-0.1448,-0.1475,-0.1429,-0.1465,-0.1571,-0.1523,-0.1566,-0.1573,-0.1557,-0.1577,-0.1579,-0.1598,-0.1627,-0.1627,-0.1666,-0.1666,0,0,-0.1459,-0.1446,-0.1471,-0.1479,-0.1502,-0.152,-0.1526,-0.1571,-0.158,-0.1577,-0.1581,-0.1599,-0.1627,-0.1627,-0.1665,-0.1666,0,0,0,-0.144,-0.1442,-0.147,-0.1476,-0.1501,-0.1523,-0.1531,-0.1579,-0.1588,-0.1582,-0.16,-0.1627,-0.1627,-0.1665,-0.1666,-0.1705,0,0,0,-0.1437,-0.1431,-0.1467,-0.1461,-0.1501,-0.1553,-0.1537,-0.1585,-0.1591,-0.1599,-0.1627,-0.1627,-0.1665,-0.1665,-0.1704,-0.1705,0,0,0,-0.1421,-0.1429,-0.1445,-0.146,-0.1506,-0.1553,-0.1566,-0.1588,-0.1601,-0.1626,-0.1627,-0.1665,-0.1665,-0.1702,-0.1703,-0.1688,0,0,0,-0.14,-0.1426,-0.1445,-0.1485,-0.1505,-0.1571,-0.1567,-0.1623,-0.165,-0.1627,-0.1665,-0.1666,-0.1702,-0.1702,-0.1687,-0.1453,0,0,0,-0.1417,-0.1428,-0.1452,-0.1471,-0.1531,-0.1555,-0.1614,-0.165,-0.1648,-0.1643,-0.1645,-0.1704,-0.1703,-0.1687,-0.1493,0,0,0,0,-0.1447,-0.1462,-0.1485,-0.1528,-0.1576,-0.1621,-0.166,-0.1669,-0.1696,-0.1667,-0.1706,-0.1703,-0.1692,-0.1554,-0.1669,-0.1669,-0.1668,-0.1668,-0.1668,-0.1433,-0.147,-0.151,-0.156,-0.1606,-0.167,-0.17,-0.1715,-0.1719,-0.1737,-0.1738,-0.1755,-0.1612,-0.1748,-0.1748,-0.1748,-0.1749,-0.1749,-0.1749,-0.1434,-0.1441,-0.1514,-0.1568,-0.1629,-0.1685,-0.1734,-0.1752,-0.1766,-0.1768,-0.1756,-0.1609,-0.1753,-0.1752,-0.1751,-0.1751,-0.1751,-0.175,-0.175,-0.1385,-0.1391,-0.1455,-0.1533,-0.1615,-0.1694,-0.1716,-0.1774,-0.1787,-0.1795,-0.1624,-0.1765,-0.1757,-0.1792,-0.1792,-0.1792,-0.1792,-0.1792,-0.1792,-0.1289,-0.1351,-0.1385,-0.1491,-0.1541,-0.1617,-0.1708,-0.1701,-0.1746,-0.1627,-0.1802,-0.1768,-0.1767,-0.1759,-0.1791,-0.1791,-0.1791,-0.1791,-0.1791,-0.1181,-0.1231,-0.1262,-0.1313,-0.1413,-0.1454,-0.1588,-0.1537,-0.1505,-0.1431,-0.1521,-0.1534,-0.1487,-0.1492,-0.1472,-0.1421,-0.1418,-0.1415,0,-0.1085,-0.112,-0.113,-0.1163,-0.1191,-0.133,-0.1243,-0.1275,-0.1307,-0.1264,-0.1496,-0.16,-0.1608,-0.1558,-0.1558,-0.1535,0,0,0,-0.0994,-0.1023,-0.0983,-0.1051,-0.1074,-0.1101,-0.1207,-0.1146,-0.1329,-0.1222,-0.1342,-0.1361,-0.1621,-0.1789,-0.1748,-0.1747,-0.173,0,0]},{"header":{"parameterUnit":"m.s-1","parameterCategory":2,"la1":30.2992,"la2":30.254,"lo1":-89.0895,"lo2":-89.0443,"dy":0.0025,"dx":0.0025,"nx":19,"ny":19,"refTime":"2026-05-18T09:00:00:Z","depth":"4","parameterNumber":3,"parameterNumberName":"V-component_of_CURRENTS"},"data":[0,0,0,-0.0272,-0.0272,-0.0243,-0.0243,-0.0164,-0.0163,0,0,0,0,0,0,0,0,0,0,0,-0.0282,-0.0282,-0.0272,-0.0272,-0.0243,-0.0243,-0.0164,-0.0163,0,0,0,0,0,0,0,0,0,0,0,-0.0282,-0.0282,-0.0283,-0.0272,-0.0243,-0.0243,-0.0164,-0.0193,0,0,0,0,0,0,0,0,0,0,-0.0225,-0.0249,-0.0282,-0.0283,-0.0272,-0.0243,-0.0243,-0.0195,-0.0191,-0.0169,0,-0.0176,0,-0.0173,-0.0158,-0.0158,0,0,0,-0.0258,-0.0252,-0.0243,-0.0283,-0.0272,-0.0243,-0.0252,-0.0193,-0.0189,-0.0165,-0.0175,-0.0172,-0.0172,-0.0158,-0.0157,-0.008,-0.008,0,0,-0.026,-0.0273,-0.0246,-0.0241,-0.0278,-0.0253,-0.0252,-0.0191,-0.0192,-0.0175,-0.017,-0.017,-0.0157,-0.0156,-0.008,-0.008,0,0,0,-0.0274,-0.0274,-0.0267,-0.0244,-0.0246,-0.0253,-0.0251,-0.0194,-0.0192,-0.017,-0.017,-0.0157,-0.0156,-0.0081,-0.008,-0.0136,0,0,0,-0.0274,-0.0283,-0.0268,-0.0275,-0.0247,-0.0226,-0.0256,-0.0196,-0.019,-0.017,-0.0157,-0.0155,-0.0081,-0.008,-0.0135,-0.0168,0,0,0,-0.0281,-0.0284,-0.0285,-0.0276,-0.027,-0.0228,-0.0222,-0.0195,-0.019,-0.0158,-0.0155,-0.0081,-0.0081,-0.0135,-0.0166,-0.0134,0,0,0,-0.0289,-0.0309,-0.0285,-0.0304,-0.0271,-0.0254,-0.0222,-0.0205,-0.0181,-0.0156,-0.0081,-0.008,-0.0135,-0.0164,-0.0134,-0.0158,0,0,0,-0.032,-0.0313,-0.0323,-0.0302,-0.031,-0.0257,-0.0241,-0.02,-0.0158,-0.0096,-0.0095,-0.0136,-0.0165,-0.0134,-0.0116,0,0,0,0,-0.0337,-0.035,-0.0345,-0.0345,-0.0316,-0.0286,-0.0235,-0.0197,-0.0144,-0.0144,-0.0106,-0.0122,-0.0101,-0.0112,-0.0077,-0.0077,-0.0077,-0.0077,-0.0077,-0.0401,-0.0386,-0.0406,-0.0384,-0.0363,-0.0299,-0.0262,-0.0195,-0.0157,-0.0133,-0.0145,-0.0131,-0.0144,-0.0114,-0.0114,-0.0114,-0.0115,-0.0115,-0.0115,-0.0466,-0.0482,-0.0455,-0.0475,-0.0423,-0.0399,-0.0291,-0.025,-0.0171,-0.0152,-0.0127,-0.0144,-0.012,-0.0119,-0.0118,-0.0117,-0.0117,-0.0117,-0.0117,-0.0518,-0.0523,-0.0537,-0.0555,-0.0537,-0.0468,-0.0415,-0.0332,-0.0229,-0.0209,-0.0175,-0.0148,-0.0167,-0.0185,-0.0185,-0.0185,-0.0185,-0.0185,-0.0185,-0.0568,-0.0576,-0.0624,-0.0634,-0.0643,-0.0612,-0.0491,-0.0414,-0.0301,-0.0233,-0.0217,-0.0154,-0.0151,-0.0168,-0.0185,-0.0185,-0.0185,-0.0185,-0.0185,-0.0625,-0.0638,-0.0706,-0.0736,-0.0747,-0.071,-0.061,-0.0427,-0.0342,-0.0252,-0.022,-0.0218,-0.0191,-0.0187,-0.0205,-0.0233,-0.0233,-0.0234,0,-0.0663,-0.0675,-0.0766,-0.0813,-0.082,-0.0757,-0.0632,-0.051,-0.0356,-0.0364,-0.0348,-0.0322,-0.0317,-0.0297,-0.0293,-0.0319,0,0,0,-0.0698,-0.0724,-0.0789,-0.084,-0.0845,-0.0696,-0.0592,-0.0525,-0.0395,-0.0286,-0.0243,-0.0241,-0.0242,-0.0185,-0.0138,-0.0136,-0.0159,0,0]}]]